Regional Weather Roundup
Issued by NWS Newport/Morehead, NC

Current Version | Previous Version | Graphics & Text | Print | Product List | Glossary Off
Versions: 1 2 3 4 5 6 7 8 9 10 11 12 13 14 15 16 17 18 19 20 21 22 23 24 25 26 27 28 29 30 31 32 33 34 35 36 37 38 39 40 41 42 43 44 45 46 47 48 49 50

000
ASUS42 KMHX 230414
RWRMHX
WEATHER ROUNDUP FOR EASTERN NORTH CAROLINA
NATIONAL WEATHER SERVICE NEWPORT/MOREHEAD CITY NC
1200 AM EDT TUE MAY 23 2017

NOTE: "FAIR" INDICATES FEW OR NO CLOUDS BELOW 12,000 FEET
WITH NO SIGNIFICANT WEATHER AND/OR OBSTRUCTIONS TO VISIBILITY

NCZ015>017-031-032-045>047-102-103-230500-
NORTH COAST

CITY           SKY/WX    TMP DP  RH WIND       PRES   REMARKS
EDENTON        CLOUDY    72  67  85 CALM      29.98S
ELIZABETH CITY CLOUDY    69  69 100 SW3       29.96F
KITTY HAWK     NOT AVBL
MANTEO         CLOUDY    68  66  93 SW10      29.98S

$$

NCZ045>047-081-094-103-104-230500-
CENTRAL COAST

CITY           SKY/WX    TMP DP  RH WIND       PRES   REMARKS
FRISCO         RAIN      69  66  90 SW12      30.00F FOG

$$

NCZ095-097-098-100-101-230500-
SOUTHERN COAST

CITY           SKY/WX    TMP DP  RH WIND       PRES   REMARKS
BEAUFORT       CLOUDY    74  70  87 SW8       29.98S
CEDAR ISLAND   NOT AVBL
JACKSONVILLE   CLOUDY    68  68 100 CALM      29.98F
PINEY ISLAND   CLOUDY   N/A N/A N/A SW3       29.98
WILMINGTON     CLOUDY    68  68 100 CALM      29.99F


$$

NCZ011>013-027>030-043-044-078>080-089-090>093-098-230500-
COASTAL PLAIN

CITY           SKY/WX    TMP DP  RH WIND       PRES   REMARKS
AHOSKIE          N/A     66  65  99 CALM      29.97F
CLINTON        DRIZZLE   67  67 100 CALM      30.00S
ELIZABETHTOWN  LGT RAIN  67  67 100 CALM      29.98F
GOLDSBORO      LGT RAIN  70  70 100 W8        29.97F FOG
GREENVILLE     DRIZZLE   72  70  94 SW7       29.99F
HAVELOCK       NOT AVBL
KENANSVILLE    CLOUDY    66  66 100 CALM      30.00R
KINSTON        DRIZZLE   69  67  94 SW5       29.99F
NEW BERN       LGT RAIN  68  68 100 CALM      29.99F
RICHLANDS      CLOUDY    67  66  97 SW3       29.99F
ROCKY MOUNT    CLOUDY    71  70  96 S3        29.97S
WASHINGTON     CLOUDY    70  67  89 S6        29.98S
WHITEVILLE     LGT RAIN  67  66  97 CALM      29.99F

$$

AMZ130-135-150-152-154-156-158-170-250-252-270-ANZ085-086-088-633-658-670-230500-
MARINE OBSERVATIONS

STATION/POSITION TIME  TEMP    WIND        PRES    WAVE   SWELL
                       AIR SEA DIR/SP/G            HT/PER HT/PER
                 (UTC) (F)     (DEG/KT/KT) (MB)    (FT/S) (FT/S)
CHESAPEAKE LIGHT NOT AVBL
64 E VA BEACH    0350   66 66  230/ 10/ 12 1014.2    4/ 8   3/ 8
DUCK             0348   71 65  220/ 12/ 14 1014.2
2 E DUCK         0400      66                N/A     2/ 9
OREGON INLET     0348          210/ 17/ 19   N/A
13E OREGON INLT  0348      66                N/A     3/ 8   2/ 8
HATTERAS CG      0348   69 76  170/  8/ 12 1015.7
DIAMOND BUOY     0350   72 78  270/ 10/ 12 1015.8    4/ 8   3/ 8
CAPE LOOKOUT     0400   76     250/  9/ 11 1015.0
BEAUFORT LAB     0348   74 75  240/  4/ 10 1014.6
30 SE NEW RVR IN 0308   76 76  250/ 10/ 14 1015.8
30 SE NEW RVR IN 0343      76                N/A     3/ 5
27 SE WRIGHTSVLE 0308   70 76  340/ 14/ 19 1015.2
5 SE WRIGHTSVLE  0308   69 75   20/  2/  4 1016.3
225 S CAPE HAT   0350   76 77  180/ 12/ 14 1018.3    3/ 8   3/ 8
41 SE CHARLESTON 0350   78 78  190/ 10/ 12 1014.6    3/ 8   2/ 8

$$



USA.gov is the U.S. government's official web portal to all federal, state and local government web resources and services.